Danville, VA

1:16 AM EDT on September 20, 2017 (GMT -0400)
Danville Regional

Weather History for KDAN - December, 2012

Change the Weather History Date:

Monday, December 3, 2012

  Actual Average Record
Temperature  
Mean Temperature 63 °F 43 °F  
Max Temperature 76 °F 53 °F 78 °F (1991)
Min Temperature 50 °F 33 °F 16 °F (1960)
Degree Days  
Heating Degree Days 2 22  
Month to date heating degree days 34 65  
Since 1 July heating degree days 861 774  
Cooling Degree Days 0 0  
Month to date cooling degree days 0 0  
Year to date cooling degree days 1594 1439  
Growing Degree Days 14 (Base 50)    
Moisture  
Dew Point 50 °F    
Average Humidity 66    
Maximum Humidity 89    
Minimum Humidity 43    
Precipitation  
Precipitation T in 0.12 in 1.14 in (1948)
Month to date precipitation T 0.35  
Year to date precipitation 26.37 41.49  
Snow  
Snow 0.00 in - - ()
Month to date snowfall 0.0  
Since 1 July snowfall 0.0  
Snow Depth 0.00 in    
Sea Level Pressure  
Sea Level Pressure 30.23 in    
Wind  
Wind Speed 4 mph (SW)    
Max Wind Speed 10 mph    
Max Gust Speed 13 mph    
Visibility 10 miles    
Events      
T = Trace of Precipitation, MM = Missing Value Source: NWS Daily Summary

Daily Weather History Graph

Daily Weather History Graph

Search for Another Location

Airport or City:

Trip Planner

Search our weather history database for the weather conditions in past years. The results will help you decide how hot, cold, wet, or windy it might be!

Date:

Astronomy

Dec. 03, 2012 Rise Set
Actual Time 7:13 AM EST 5:01 PM EST
Civil Twilight 6:44 AM EST 5:30 PM EST
Nautical Twilight 6:12 AM EST 6:02 PM EST
Astronomical Twilight 5:41 AM EST 6:33 PM EST
Moon 9:42 PM EST (12/3) 10:39 AM EST (12/3)
Length of Visible Light 10h 45m
Length of Day
9h 48m
Waning Gibbous, 78% of the Moon is Illuminated
Dec 3
Waning Gibbous
Dec 6
Last Quarter
Dec 13
New
Dec 20
First Quarter
Dec 28
Full

Hourly Weather History & Observations

Time (EST) Temp. Dew Point Humidity Pressure Visibility Wind Dir Wind Speed Gust Speed Precip Events Conditions
12:53 AM 57.0 °F 51.1 °F 81% 30.23 in 10.0 mi SSW 5.8 mph - 0.00 in   Overcast
1:53 AM 57.9 °F 51.1 °F 78% 30.23 in 10.0 mi SSW 5.8 mph - N/A   Overcast
2:53 AM 57.0 °F 50.0 °F 77% 30.23 in 10.0 mi SW 8.1 mph - N/A   Overcast
3:53 AM 57.0 °F 50.0 °F 77% 30.23 in 10.0 mi SW 8.1 mph - N/A   Overcast
4:53 AM 53.1 °F 48.9 °F 86% 30.23 in 10.0 mi WSW 3.5 mph - N/A   Mostly Cloudy
5:53 AM 52.0 °F 48.0 °F 86% 30.23 in 10.0 mi SW 6.9 mph - N/A   Partly Cloudy
6:53 AM 53.1 °F 48.0 °F 83% 30.24 in 10.0 mi SW 6.9 mph - N/A   Clear
7:53 AM 54.0 °F 48.9 °F 83% 30.25 in 10.0 mi WSW 3.5 mph - N/A   Clear
8:53 AM 59.0 °F 50.0 °F 72% 30.27 in 10.0 mi WSW 4.6 mph - N/A   Clear
10:53 AM 68.0 °F 48.9 °F 50% 30.27 in 10.0 mi WSW 5.8 mph - N/A   Overcast
11:53 AM 73.9 °F 51.1 °F 45% 30.24 in 10.0 mi NW 5.8 mph - N/A   Overcast
12:53 PM 73.0 °F 51.1 °F 46% 30.21 in 10.0 mi WSW 3.5 mph - N/A   Mostly Cloudy
1:53 PM 75.0 °F 51.1 °F 43% 30.19 in 10.0 mi Calm Calm - N/A   Partly Cloudy
2:53 PM 73.9 °F 51.1 °F 45% 30.19 in 10.0 mi Calm Calm - N/A   Clear
3:53 PM 73.9 °F 51.1 °F 45% 30.19 in 10.0 mi Calm Calm - N/A   Partly Cloudy
4:53 PM 70.0 °F 52.0 °F 53% 30.20 in 10.0 mi Calm Calm - N/A   Overcast
5:53 PM 68.0 °F 51.1 °F 55% 30.21 in 10.0 mi SSW 3.5 mph - N/A   Scattered Clouds
6:53 PM 61.0 °F 51.1 °F 70% 30.22 in 10.0 mi Calm Calm - N/A   Clear
7:53 PM 60.1 °F 50.0 °F 69% 30.23 in 10.0 mi South 3.5 mph - N/A   Clear
8:53 PM 63.0 °F 50.0 °F 63% 30.23 in 10.0 mi South 4.6 mph - N/A   Clear
9:53 PM 59.0 °F 48.9 °F 69% 30.24 in 10.0 mi SSW 3.5 mph - N/A   Clear
10:53 PM 55.9 °F 48.9 °F 77% 30.24 in 10.0 mi Calm Calm - N/A   Clear
11:53 PM 54.0 °F 48.9 °F 83% 30.24 in 10.0 mi Calm Calm - N/A   Clear